ARIANE 44LP DEB, 26812

Orbit data source: Space-Track

ARIANE 44LP DEB, 26812 is space debris in HEO originally from a launch on Sun, 11 Dec 1988 UTC launched from the French Guiana (FRGUI). Debris objects in space refer to the collection of defunct objects orbiting the Earth. Examples of debris include non-operational satellites, rocket bodies, and fragments generated from explosions, collisions, or faulty payload assembly.

Loading next visibility...
Identifier
26812, 1988-109P
Orbit
HEO
Country
Flag of FRFR
Related business
Manufacturer
Unknown
Mission
Spacecraft
Bus & Motor
Unknown
Mass
Unknown
Launch date (UTC)
1988-12-11 (37 years ago)
Launch vehicle
Unknown
Launch site
French Guiana (FRGUI)
Object type
Payload
Rocket body
Debris
Shape & HBR
Unknown shape, 1.1 m
Radar Cross Section
Medium (>0.1 m² and <1 m²)

Expand to show TLE details & history
Last TLE update: 4 days ago

TLE from 4 days ago
0 ARIANE 44LP DEB
1 26812U 88109P   25347.85714510 -.00000006  00000-0  00000-0 0  9994
2 26812   6.2177 231.0632 7019240  92.2206  27.9406  2.21744844226087
Epoch: 2025-12-13T20:34Z
TLE epoch observation values (Epoch: 2025-12-13T20:34:17.336Z)
Latitude
-2.56105°
Longitude
44.2969°
Altitude
10,883.118 km
Speed
5.49 km/s
True Right ascension
05h 02m 35s
True Declination
-2° 33' 17"
Sunlit
Object was in daylight at epoch
Visualization orbit readout
Latitude
Unknown
Longitude
Unknown
Altitude
Unknown
Speed
Unknown
Apparent Right ascension
Unknown
Apparent Declination
Unknown
Sunlit
N/A
Visualization observer readout
Local Sidereal Time
12:28:11
Azimuth
Unknown
Elevation
Unknown
Doppler factor
Unknown
Orbital elements
Apogee altitude
35,907.304 km
Perigee altitude
1,027.761 km
Semi-major axis
24,845.669 km
Eccentricity
0.70192
Inclination
6.2177°
RAAN
231.0632°
Arg. of periapsis
92.2206°
True anomaly
112.50665°
Mean anomaly
27.9406°
Eccentric anomaly
64.12649°
Mean motion
0.5542 °/min
Orbital period
649.58 mins
BSTAR
0
Loading maneuver chart data...
Computing Atmospheric mass density...
Loading historical data...
Loading historical data...
Loading historical data...
Loading historical data...
Loading historical data...
Loading historical data...
Loading historical data...

Documentation

Showing up to 5 results
|